User: anonymous   Login
Location: Unspecified
(0.0000°N, 0.0000°E)
Time: 21:45:56
(UTC+00:00)
Language:

MetOp-B - Orbit

View from above orbital plane
View from above orbital plane
View from above satellite
View from above satellite

Ground track
Ground track

The orbit data is extracted from the following two-line orbital elements,

1 38771U 12049A   17083.94823007 +.00000000 +00000-0 +20041-4 0  9995
2 38771 098.6889 145.4857 0002125 108.3801 016.3884 14.21493917234315
Epoch (UTC): 24 March 2017 22:45:27
Eccentricity: 0.0002125
inclination: 98.6889°
perigee height: 819 km
apogee height: 822 km
right ascension of ascending node: 145.4857°
argument of perigee: 108.3801°
revolutions per day: 14.21493917
mean anomaly at epoch: 16.3884°
orbit number at epoch: 23431

The dashed part of the orbit path shows where the satellite is in the earth's shadow,  

DLR